OKEAN-O

Last updated on Tue Mar 03 2026 00:02:16 GMT+0000 (Coordinated Universal Time)

1 25860U 99039A 26061.62223197 .00000828 00000+0 11541-3 0 9990 2 25860 97.9458 121.5851 0001479 71.8136 288.3236 14.80322080433342
UTC large
Height (km)
Speed (km/s)
/
Latitude / Longitude
Inclination (degrees)
Orbital Period (minutes)
Azimuth
Elevation
Range (km)
Doppler Factor

Next 0 passes for location: London (51.5072 / 0.1276)

Sorry there are no passes over London.